Terminal Aerodrome Forecast
Issued by NWS Mobile, AL

Home | Current Version | Previous Version | Text Only | Print | Product List | Glossary On
Versions: 1 2 3 4 5 6 7 8 9 10 11 12 13 14 15 16
000
FTUS44 KMOB 230526
TAFPNS
TAF
KPNS 230526Z 2306/2406 01005KT P6SM SKC
     FM231200 09009KT P6SM SCT025
     FM231500 10009KT P6SM BKN020
     FM231800 12013KT P6SM OVC020
     FM240300 11012KT P6SM OVC015=

USA.gov is the U.S. government's official web portal to all federal, state and local government web resources and services.